Wind_Speed
34 33 33 33 34 34 33 33 33 33 33 33 33 34 34 34 34 34 35 35 35 36 35 35 36 36 36 36 36 36 36 36 36 36 36 35 35 35 35 36 36 35 36
35 34 34 34 34 34 33 33 33 33 34 34 34 35 35 36 36 37 36 36 37 37 37 37 37 37 37 37 37 38 38 38 38 38 37 37 37 37 37 37 37 37 37
35 35 35 35 34 34 34 34 33 33 33 34 35 36 36 37 37 37 37 37 38 38 38 38 38 38 37 38 38 38 39 40 39 39 39 39 39 39 38 38 39 39 38
34 35 36 36 35 34 35 36 36 35 35 35 35 36 37 37 37 38 38 39 39 39 39 39 39 39 39 39 39 39 39 40 40 40 40 40 40 39 39 40 40 40 39
34 34 35 36 36 36 36 36 37 37 37 37 37 37 37 37 38 38 39 39 39 40 40 40 40 40 40 40 41 40 40 40 40 40 40 41 40 40 40 41 41 40 39
36 35 35 36 36 36 37 37 37 37 38 38 38 39 38 38 38 39 40 40 40 41 41 41 42 41 41 41 41 41 41 41 41 41 41 41 41 42 42 42 42 41 41
35 36 36 36 36 37 37 37 37 37 38 39 39 39 39 39 39 40 41 41 41 41 42 42 43 42 42 42 42 42 41 41 42 42 43 43 42 42 43 43 43 42 42
36 36 37 37 38 39 39 38 38 38 39 39 40 39 39 39 40 41 41 41 41 41 42 42 43 43 43 43 43 43 43 43 43 43 44 44 43 43 44 43 43 43 43
36 37 38 37 38 38 39 39 39 39 39 40 40 40 40 40 40 40 41 41 41 41 41 41 42 43 43 43 44 45 45 45 44 45 45 44 44 44 44 43 43 43 43
35 36 37 37 38 38 38 38 39 39 39 40 40 40 41 41 41 40 41 41 42 42 41 42 42 42 43 44 45 46 46 45 45 44 45 44 44 45 44 43 43 44 44
37 37 36 37 37 38 38 39 39 40 39 40 40 41 41 42 42 41 41 41 42 43 43 43 43 43 44 44 45 46 46 46 45 45 45 45 45 45 45 44 45 45 45
38 38 37 37 37 38 39 40 41 40 40 40 40 41 42 42 42 42 42 41 41 42 42 43 43 44 44 43 44 45 45 46 46 46 46 46 46 45 45 45 46 46 46
39 39 39 39 38 38 39 39 40 40 40 39 39 40 40 41 41 42 42 41 42 42 42 42 43 43 43 44 44 44 45 45 46 46 47 46 46 46 46 46 46 46 47
39 39 40 40 40 39 40 40 40 40 40 39 39 39 40 41 41 41 41 41 41 42 43 43 43 43 44 44 44 44 45 45 45 46 47 47 47 48 48 48 47 47 47
39 39 40 40 40 40 41 40 39 39 39 39 39 40 41 41 41 41 41 41 42 42 42 42 43 43 44 44 44 44 44 45 44 45 45 46 46 47 48 48 48 47 47
38 39 40 40 41 40 40 40 39 39 39 39 39 39 39 40 40 41 42 42 42 42 42 42 43 43 43 43 43 42 42 42 43 43 43 44 46 47 47 47 47 48 48
39 39 40 40 40 40 40 40 40 40 40 40 40 40 40 40 40 41 41 41 42 42 42 42 42 41 41 41 41 40 40 40 40 41 42 43 45 45 45 45 45 45 45
40 40 40 40 39 40 41 41 41 41 41 41 41 41 41 42 42 42 42 42 42 42 42 41 41 41 41 41 40 40 39 39 39 40 40 40 41 42 42 42 42 42 43
40 41 41 40 40 40 41 42 42 42 42 42 42 42 42 43 43 43 43 42 42 41 41 41 41 42 42 42 41 41 40 39 40 40 40 40 39 39 39 39 38 38 39
40 40 40 40 41 41 41 41 41 41 42 42 42 43 43 43 43 43 42 42 42 42 41 41 41 41 41 41 41 41 40 40 40 40 39 39 39 38 37 37 36 36 37
39 38 38 39 39 40 40 41 41 42 42 43 43 43 43 42 41 41 41 41 42 41 41 40 40 40 40 40 41 40 40 39 40 39 38 38 37 36 35 36 35 36 36
38 37 37 37 37 38 39 40 40 41 41 42 42 41 41 40 40 40 40 40 39 39 39 39 39 39 39 39 39 39 39 38 38 37 37 36 36 35 35 35 35 35 35
37 37 37 37 37 38 39 40 41 41 41 41 40 39 39 39 39 39 39 39 38 38 38 38 38 38 37 37 37 37 37 37 36 35 35 35 35 34 34 35 34 34 34
37 37 37 37 37 37 38 38 39 40 40 39 38 38 38 38 38 38 38 38 38 38 37 37 37 36 36 36 36 36 35 35 35 34 34 33 33 33 33 33 32 32 32
36 36 36 36 37 37 38 39 39 39 38 38 38 37 37 37 37 37 37 37 37 37 37 36 36 35 34 34 35 34 33 33 33 32 33 32 32 32 32 32 32 32 31
35 36 36 37 37 38 38 39 39 38 37 37 37 37 36 37 37 37 37 36 35 35 36 35 35 35 34 34 33 33 33 32 32 32 31 31 31 30 30 30 30 30 30
Wind_Direction
259 260 261 261 263 263 266 267 268 269 270 269 269 270 271 272 273 274 275 276 277 276 276 277 277 276 276 276 276 276 275 275 275 275 275 275 275 276 277 277 278 279 279
259 260 261 262 264 264 264 266 268 270 271 270 269 270 270 272 273 274 275 275 276 276 276 276 276 276 275 275 276 276 275 275 275 275 274 275 275 276 277 276 277 278 278
259 260 261 262 263 264 264 266 268 271 271 271 271 272 272 273 274 274 274 275 275 275 276 276 276 276 275 275 275 276 276 276 275 275 274 275 275 275 276 276 277 277 277
260 261 262 262 263 265 266 267 268 270 271 272 272 273 274 275 274 274 274 275 275 275 276 275 275 275 276 276 275 276 276 275 275 275 275 275 274 275 276 276 276 276 276
259 260 262 263 264 265 266 267 268 270 271 272 273 275 276 276 276 276 275 275 275 275 275 275 275 276 276 276 275 275 275 275 275 275 275 275 275 275 276 276 277 276 275
259 260 261 263 264 265 267 268 269 270 271 272 274 275 276 276 276 276 277 277 277 277 275 275 275 276 276 276 275 275 274 274 275 275 275 276 276 276 276 277 277 275 275
261 261 261 263 265 266 268 269 270 271 272 272 273 274 275 276 277 277 278 278 279 278 277 277 276 276 276 276 276 275 275 274 275 275 275 276 276 276 275 276 276 275 277
262 262 262 264 265 267 269 270 271 273 274 274 274 274 274 275 276 277 278 278 279 280 280 278 278 278 277 276 276 276 276 275 275 275 275 275 275 276 275 275 274 274 275
263 264 263 264 266 267 269 270 272 274 275 275 275 274 275 275 276 276 278 278 279 280 280 279 279 278 278 276 276 276 276 276 275 274 275 275 275 275 275 274 273 273 274
262 263 263 264 265 267 269 271 272 275 276 275 274 274 275 276 276 276 277 278 278 279 279 279 279 279 278 277 276 276 276 275 275 274 274 274 275 274 274 274 273 272 273
261 263 263 264 265 266 269 270 271 274 276 276 275 275 275 276 276 276 277 278 278 278 279 279 279 279 279 278 277 277 276 275 275 274 273 273 273 273 273 273 272 272 272
261 263 263 264 265 267 269 270 272 274 276 276 276 276 276 276 275 276 277 277 278 279 279 279 279 279 279 280 279 279 277 276 275 274 274 273 273 272 272 272 272 272 272
261 262 263 264 265 267 269 270 273 274 274 275 276 277 277 277 277 278 278 278 279 280 280 280 280 280 279 280 280 280 278 276 275 274 274 273 272 271 272 272 273 273 272
260 261 263 265 266 268 270 271 273 274 274 275 276 276 276 278 279 279 280 280 281 281 281 280 280 279 279 279 280 280 279 277 276 275 274 273 272 271 272 273 274 273 272
260 261 263 265 266 268 271 272 274 275 275 276 276 276 277 278 279 280 281 282 283 283 282 282 281 281 281 281 281 281 280 279 278 277 276 274 274 273 272 272 273 272 271
262 263 265 266 267 268 271 272 273 274 274 276 277 277 278 278 280 280 281 283 284 284 283 282 282 282 282 281 281 281 281 281 280 278 277 277 276 275 274 274 273 272 272
264 265 266 267 268 268 269 271 272 273 274 276 278 278 278 279 280 281 282 283 284 284 283 282 282 282 282 282 282 281 282 282 282 281 279 278 278 277 276 275 274 272 272
265 266 267 267 268 268 270 272 273 272 274 276 277 278 279 279 279 280 280 282 283 283 283 282 281 281 281 282 281 282 283 282 281 282 282 281 280 279 278 277 276 272 270
266 267 268 268 268 269 271 273 274 274 274 275 276 277 279 280 280 280 280 281 282 282 282 282 281 282 282 281 280 282 283 282 282 283 283 282 282 281 279 278 277 274 272
267 269 269 269 269 270 272 274 275 275 274 276 277 278 279 279 280 280 280 280 281 281 281 281 281 281 281 281 280 281 281 282 283 284 284 283 283 281 280 279 278 277 275
267 269 270 270 270 270 272 274 275 275 275 277 278 279 279 279 280 280 281 281 281 281 281 281 281 281 280 280 280 281 281 281 282 283 284 283 283 282 282 280 279 278 276
268 270 270 270 270 271 272 274 275 276 277 278 278 278 279 280 280 281 282 282 282 281 281 282 282 281 281 280 280 281 280 280 281 282 283 282 283 283 282 281 280 279 277
268 270 270 270 270 272 273 275 276 278 278 277 277 277 278 279 280 281 281 281 281 281 282 282 282 281 280 281 281 281 281 281 281 282 282 282 283 283 282 281 281 280 278
268 269 269 270 271 272 275 276 278 279 277 277 277 278 279 280 281 282 281 281 281 282 282 282 282 281 280 281 281 281 281 281 281 282 282 282 281 281 282 282 281 281 279
269 269 270 270 272 274 275 278 279 279 277 277 279 280 280 280 281 281 281 281 282 282 283 283 282 281 280 280 280 281 281 281 281 281 283 283 281 280 281 281 281 282 281
269 270 271 272 273 275 277 279 279 278 278 278 279 280 281 281 281 281 281 282 282 282 281 281 281 280 279 279 280 280 280 281 281 281 282 282 282 280 281 280 279 281 281
Height
5780 5781 5782 5784 5785 5785 5786 5787 5788 5788 5788 5789 5789 5789 5789 5789 5789 5789 5789 5789 5788 5788 5787 5787 5786 5786 5786 5786 5786 5786 5786 5786 5786 5786 5786 5786 5785 5785 5784 5784 5783 5783 5782
5773 5774 5775 5776 5777 5778 5779 5779 5780 5780 5781 5781 5781 5781 5781 5781 5781 5781 5780 5780 5780 5779 5779 5778 5778 5777 5777 5777 5777 5777 5777 5777 5777 5777 5777 5777 5777 5777 5776 5775 5774 5774 5773
5765 5766 5767 5768 5770 5770 5771 5772 5772 5773 5773 5773 5773 5773 5773 5773 5772 5772 5771 5771 5770 5770 5770 5769 5768 5768 5768 5768 5768 5768 5768 5768 5768 5768 5768 5768 5768 5767 5767 5766 5765 5765 5764
5757 5758 5759 5761 5762 5762 5763 5764 5764 5765 5765 5765 5765 5765 5764 5764 5763 5762 5762 5761 5761 5761 5760 5759 5759 5759 5758 5758 5758 5758 5758 5758 5758 5758 5758 5758 5758 5758 5757 5757 5756 5755 5754
5749 5750 5751 5752 5754 5754 5755 5756 5756 5757 5757 5757 5757 5756 5756 5755 5754 5753 5753 5752 5752 5751 5750 5750 5750 5749 5749 5748 5748 5748 5748 5748 5748 5748 5748 5748 5748 5748 5748 5747 5746 5745 5745
5740 5742 5743 5744 5745 5746 5747 5747 5748 5748 5748 5748 5748 5747 5747 5746 5745 5744 5744 5743 5742 5741 5740 5740 5740 5739 5739 5738 5738 5738 5738 5738 5738 5738 5738 5738 5738 5738 5737 5736 5736 5735 5734
5732 5733 5734 5736 5736 5737 5738 5739 5739 5739 5739 5738 5738 5738 5738 5737 5736 5735 5734 5733 5732 5731 5731 5730 5729 5729 5728 5728 5728 5727 5727 5728 5728 5727 5727 5727 5727 5727 5726 5725 5725 5724 5724
5723 5725 5726 5727 5727 5728 5729 5730 5730 5730 5730 5729 5729 5728 5729 5729 5727 5726 5725 5724 5723 5722 5721 5720 5719 5719 5718 5718 5717 5717 5717 5717 5716 5716 5716 5716 5716 5715 5715 5714 5714 5713 5713
5715 5716 5717 5718 5719 5720 5720 5721 5721 5721 5721 5720 5719 5719 5718 5719 5718 5717 5715 5714 5713 5712 5711 5710 5709 5708 5707 5707 5707 5706 5706 5705 5705 5705 5704 5704 5704 5703 5703 5702 5702 5703 5702
5706 5707 5709 5709 5710 5711 5711 5711 5711 5711 5710 5710 5709 5709 5708 5708 5707 5707 5706 5704 5703 5702 5701 5700 5699 5698 5697 5696 5695 5695 5694 5694 5693 5693 5693 5692 5692 5692 5691 5691 5691 5691 5691
5698 5699 5700 5700 5701 5701 5701 5701 5701 5701 5701 5700 5700 5699 5698 5697 5697 5696 5696 5695 5693 5692 5690 5689 5688 5687 5685 5684 5684 5683 5682 5682 5681 5681 5681 5680 5680 5680 5680 5679 5679 5679 5679
5689 5690 5690 5691 5692 5692 5692 5692 5692 5692 5691 5690 5689 5689 5688 5687 5686 5685 5685 5684 5683 5681 5680 5679 5677 5676 5675 5673 5672 5672 5671 5670 5670 5669 5668 5668 5668 5668 5667 5667 5667 5667 5667
5679 5680 5681 5682 5682 5682 5683 5683 5683 5682 5681 5680 5679 5679 5677 5677 5676 5675 5674 5673 5672 5671 5670 5668 5667 5665 5664 5662 5661 5660 5659 5658 5657 5657 5656 5656 5655 5655 5655 5655 5654 5654 5654
5670 5671 5672 5672 5673 5673 5673 5673 5672 5672 5672 5671 5670 5669 5668 5667 5665 5664 5664 5662 5661 5660 5659 5658 5656 5654 5652 5651 5650 5648 5647 5646 5645 5644 5643 5643 5643 5643 5642 5642 5641 5641 5641
5660 5661 5662 5662 5663 5663 5663 5663 5662 5662 5661 5661 5660 5659 5658 5656 5655 5654 5652 5651 5650 5649 5649 5647 5645 5643 5641 5640 5638 5636 5635 5633 5632 5631 5630 5630 5630 5629 5629 5629 5628 5628 5628
5650 5651 5652 5652 5653 5653 5653 5653 5652 5652 5651 5650 5649 5649 5647 5646 5645 5643 5642 5640 5639 5637 5637 5636 5634 5632 5630 5628 5626 5624 5623 5621 5620 5619 5618 5617 5617 5616 5616 5616 5615 5615 5614
5640 5641 5642 5642 5642 5643 5643 5642 5642 5641 5641 5640 5639 5638 5637 5636 5634 5633 5631 5630 5628 5626 5625 5625 5622 5620 5618 5616 5615 5613 5612 5610 5609 5607 5606 5606 5604 5604 5603 5602 5602 5601 5601
5630 5631 5631 5632 5632 5632 5632 5632 5631 5631 5630 5629 5628 5627 5626 5625 5624 5622 5621 5619 5617 5615 5614 5613 5611 5609 5607 5605 5604 5603 5601 5600 5598 5597 5595 5594 5593 5592 5591 5589 5589 5588 5588
5620 5620 5621 5621 5621 5621 5622 5621 5620 5620 5619 5618 5617 5617 5615 5614 5613 5611 5609 5608 5606 5604 5602 5601 5600 5598 5596 5595 5594 5592 5591 5589 5588 5586 5585 5583 5582 5580 5578 5578 5577 5576 5576
5609 5610 5610 5610 5611 5611 5611 5610 5609 5609 5608 5607 5606 5605 5604 5603 5601 5599 5598 5596 5594 5593 5591 5590 5588 5587 5585 5583 5583 5582 5580 5579 5577 5576 5574 5573 5571 5569 5568 5567 5566 5566 5565
5599 5599 5600 5600 5600 5600 5600 5599 5599 5597 5597 5596 5595 5594 5592 5591 5589 5588 5586 5584 5583 5581 5580 5578 5577 5575 5574 5573 5572 5571 5569 5568 5567 5565 5564 5562 5561 5559 5558 5557 5555 5555 5554
5589 5589 5589 5589 5589 5589 5589 5588 5587 5587 5586 5585 5584 5583 5581 5580 5579 5577 5575 5573 5571 5570 5568 5567 5566 5564 5563 5562 5561 5559 5558 5558 5557 5556 5554 5552 5550 5549 5548 5547 5546 5544 5543
5579 5579 5579 5579 5579 5579 5578 5577 5576 5575 5575 5574 5573 5572 5571 5569 5568 5566 5564 5562 5561 5559 5558 5556 5555 5554 5553 5552 5550 5549 5548 5546 5546 5545 5543 5542 5540 5539 5538 5536 5536 5535 5534
5569 5569 5569 5569 5569 5568 5568 5567 5565 5565 5564 5563 5562 5561 5560 5559 5557 5555 5554 5552 5550 5549 5547 5546 5545 5544 5542 5541 5540 5539 5538 5536 5535 5534 5532 5532 5531 5530 5528 5527 5526 5525 5524
5559 5559 5559 5559 5559 5558 5557 5556 5555 5554 5553 5552 5551 5550 5549 5548 5546 5544 5543 5542 5540 5538 5536 5535 5534 5533 5532 5531 5530 5529 5528 5527 5526 5525 5523 5522 5522 5521 5520 5518 5517 5515 5515
5548 5549 5549 5549 5548 5547 5546 5545 5544 5543 5543 5542 5541 5540 5538 5537 5535 5533 5532 5531 5530 5528 5527 5525 5524 5523 5522 5521 5520 5519 5518 5517 5516 5516 5515 5513 5512 5511 5511 5510 5508 5507 5505